Location: ??
(34.9170°N, 135.5016°E)
Time: 00:56:08
(UTC+00:00)

CZ-3 R/B - Visible Passes

Search period start: 27 February 2021 00:00
Search period end: 09 March 2021 00:00
Orbit: 381 x 10225 km, 28.3° (Epoch: 26 February)

Date Brightness Start Highest point End Pass type
(mag) Time Alt. Az. Time Alt. Az. Time Alt. Az.
27 Feb 5.8 14:57:18 10° S 15:39:32 13° SE 15:44:05 10° SE visible
27 Feb 4.1 19:09:09 14° SW 19:25:50 32° S 19:32:57 10° ESE visible
28 Feb 5.6 15:24:03 10° SSW 16:06:18 18° SE 16:15:03 10° ESE visible
28 Feb 3.8 19:35:52 11° SW 19:53:49 36° S 20:00:10 10° ESE visible
01 Mar 5.5 15:52:12 10° SSW 16:32:51 23° SSE 16:44:32 10° ESE visible
01 Mar 3.4 20:04:26 10° SW 20:21:34 39° S 20:27:14 10° ESE visible
02 Mar 5.3 16:59:13 28° SSE 16:59:32 28° SSE 17:13:08 10° ESE visible
02 Mar 3.0 20:34:03 10° WSW 20:49:08 43° S 20:54:11 10° ESE visible
03 Mar 6.8 12:56:50 10° SSE 13:15:23 11° SSE 13:15:23 11° SSE visible
03 Mar 5.0 17:25:27 31° S 17:28:53 32° SSE 17:41:10 10° ESE visible
04 Mar 6.1 13:15:00 10° S 14:22:06 - ESE 13:39:26 15° SSE visible
04 Mar 4.7 17:51:34 33° S 17:57:49 36° SSE 18:08:49 10° ESE visible
05 Mar 5.9 13:39:21 10° S 14:48:08 - ESE 14:03:36 17° S visible
05 Mar 4.4 18:17:35 32° SSW 18:26:24 41° SSE 18:36:12 10° ESE visible
06 Mar 5.7 14:05:59 10° SSW 15:14:03 15° ESE 15:17:35 10° ESE visible
06 Mar 4.0 18:43:30 30° SW 18:54:42 45° S 19:03:24 10° E visible
07 Mar 5.5 14:33:58 10° SSW 15:39:55 22° SE 15:47:04 10° ESE visible
07 Mar 3.7 19:09:21 26° SW 19:22:44 49° S 19:30:27 10° E visible
08 Mar 5.3 15:02:56 10° SSW 16:05:41 29° SE 16:15:42 10° ESE visible
08 Mar 3.4 19:35:06 21° WSW 19:50:32 52° S 19:57:25 10° E visible
